WetterOnline ( https://www.wetteronline.de )

Wetter aktuell Lüdenscheid

Aktuelles Wetter: Lüdenscheid (392m)

6-stündlich | Neueste Meldungen
Ortszeit Temperatur Wetter
Sa, 19.06. 2:00 22.3° C wolkig
Fr, 18.06. 20:00 29.1° C fast wolkenlos
Fr, 18.06. 14:00 28.7° C bedeckt
Fr, 18.06. 8:00 22.9° C wolkenlos
Fr, 18.06. 2:00 22.1° C wolkenlos
Do, 17.06. 20:00 29.6° C wolkenlos
Do, 17.06. 14:00 30.3° C wolkenlos
Do, 17.06. 8:00 24.1° C wolkenlos
Ortszeit Temperatur Wetter
Sa, 19.06. 5:30 19.3° C wolkig
Sa, 19.06. 5:20 19.3° C wolkig
Sa, 19.06. 5:10 19.2° C wolkig
Sa, 19.06. 5:00 19.8° C leicht bewölkt
Sa, 19.06. 4:50 19.8° C leicht bewölkt
Sa, 19.06. 4:40 19.8° C fast wolkenlos
Sa, 19.06. 4:30 19.7° C wolkenlos
Sa, 19.06. 4:00 20.0° C wolkenlos
Sa, 19.06. 3:30 20.1° C leicht bewölkt
Sa, 19.06. 3:00 20.9° C wolkenlos
Sa, 19.06. 2:30 21.6° C fast wolkenlos
Ortszeit Relative Feuchte Sichtweite
Sa, 19.06. 2:00 64% 40 km
Fr, 18.06. 20:00 44% 45 km
Fr, 18.06. 14:00 37% 40 km
Fr, 18.06. 8:00 75% 30 km
Fr, 18.06. 2:00 74% 35 km
Do, 17.06. 20:00 42% 50 km
Do, 17.06. 14:00 32% 35 km
Do, 17.06. 8:00 48% >70 km
Ortszeit Relative Feuchte Sichtweite
Sa, 19.06. 5:30 80% 40 km
Sa, 19.06. 5:20 80% -
Sa, 19.06. 5:10 80% -
Sa, 19.06. 5:00 77% 50 km
Sa, 19.06. 4:50 77% -
Sa, 19.06. 4:40 78% -
Sa, 19.06. 4:30 79% 50 km
Sa, 19.06. 4:00 77% 45 km
Sa, 19.06. 3:30 75% 40 km
Sa, 19.06. 3:00 71% 40 km
Sa, 19.06. 2:30 67% 40 km
Ortszeit Niederschlagsmenge Niederschlagsart
Sa, 19.06. 2:00 0.0 l/m2 in 6 Std. -
Fr, 18.06. 20:00 0.1 l/m2 in 12 Std. -
Fr, 18.06. 14:00 0.1 l/m2 in 6 Std. Regen
Fr, 18.06. 8:00 0.0 l/m2 in 12 Std. -
Fr, 18.06. 2:00 0.0 l/m2 in 6 Std. -
Do, 17.06. 20:00 0.0 l/m2 in 12 Std. -
Do, 17.06. 14:00 0.0 l/m2 in 6 Std. -
Do, 17.06. 8:00 0.0 l/m2 in 12 Std. -
Ortszeit Niederschlagsmenge Niederschlagsart
Sa, 19.06. 5:30 0.0 l/m2 in 1 Std. -
Sa, 19.06. 5:20 keine Meldung -
Sa, 19.06. 5:10 keine Meldung -
Sa, 19.06. 5:00 0.0 l/m2 in 1 Std. -
Sa, 19.06. 4:50 keine Meldung -
Sa, 19.06. 4:40 keine Meldung -
Sa, 19.06. 4:30 0.0 l/m2 in 1 Std. -
Sa, 19.06. 4:00 0.0 l/m2 in 1 Std. -
Sa, 19.06. 3:30 0.0 l/m2 in 1 Std. -
Sa, 19.06. 3:00 0.0 l/m2 in 1 Std. -
Sa, 19.06. 2:30 0.0 l/m2 in 1 Std. -
Ortszeit Stärke Spitze Richtung
km/h Bft. km/h Grad Sektor
Sa, 19.06. 2:00 9 2 22 250° W
Fr, 18.06. 20:00 14 3 32 220° SW
Fr, 18.06. 14:00 6 1 26 170° S
Fr, 18.06. 8:00 4 1 14 80° O
Fr, 18.06. 2:00 6 1 17 40° NO
Do, 17.06. 20:00 9 2 35 180° S
Do, 17.06. 14:00 14 3 29 150° SO
Do, 17.06. 8:00 7 2 18 150° SO
Ortszeit Stärke Spitze Richtung
km/h Bft. km/h Grad Sektor
Sa, 19.06. 5:30 7 2 17 230° SW
Sa, 19.06. 5:20 7 2 - 230° SW
Sa, 19.06. 5:10 9 2 - 240° SW
Sa, 19.06. 5:00 9 2 15 220° SW
Sa, 19.06. 4:50 9 2 - 220° SW
Sa, 19.06. 4:40 7 2 - 220° SW
Sa, 19.06. 4:30 7 2 14 240° SW
Sa, 19.06. 4:00 6 1 11 260° W
Sa, 19.06. 3:30 7 2 11 260° W
Sa, 19.06. 3:00 6 1 17 270° W
Sa, 19.06. 2:30 9 2 17 270° W
Ortszeit Untergrenze Bedeckung Gattung
total tief tief mittel hoch
Sa, 19.06. 2:00 10500 m 8/8 0/8 - - -
Fr, 18.06. 20:00 3600 m 1/8 1/8 - - -
Fr, 18.06. 14:00 3300 m 8/8 8/8 - - -
Fr, 18.06. 8:00 - 0/8 0/8 - - -
Fr, 18.06. 2:00 - 0/8 0/8 - - -
Do, 17.06. 20:00 10500 m 0/8 0/8 - - -
Do, 17.06. 14:00 - 0/8 0/8 - - -
Do, 17.06. 8:00 - 0/8 0/8 - - -
Ortszeit Bedeckungsgrad in Achtel und Wolkenuntergrenze
Sa, 19.06. 5:30 7(9000m) 8(10500m)
Sa, 19.06. 5:20 7(9000m) 8(10500m)
Sa, 19.06. 5:10 7(9000m) 7(10500m)
Sa, 19.06. 5:00 3(9000m) 4(10500m)
Sa, 19.06. 4:50 3(9000m) 4(10500m)
Sa, 19.06. 4:40 1(9000m)
Sa, 19.06. 4:30 keine Wolken
Sa, 19.06. 4:00 keine Wolken
Sa, 19.06. 3:30 5(9000m)
Sa, 19.06. 3:00 4(9000m)
Sa, 19.06. 2:30 1(2400m)
Ortszeit Luftdruck NN (hPa) Tendenz (hPa in 3 Std.)
Sa, 19.06. 2:00 1013 + 0,6
Fr, 18.06. 20:00 1010 - 0,3
Fr, 18.06. 14:00 1012 - 0,4
Fr, 18.06. 8:00 1013 + 0,3
Fr, 18.06. 2:00 1014 + 0,6
Do, 17.06. 20:00 1011 + 0,2
Do, 17.06. 14:00 1010 - 0,6
Do, 17.06. 8:00 1011 + 0,4
Ortszeit Luftdruck NN (hPa) Tendenz (hPa in 3 Std.)
Sa, 19.06. 5:30 1014 + 0,3
Sa, 19.06. 5:20 1014 keine Meldung
Sa, 19.06. 5:10 1014 keine Meldung
Sa, 19.06. 5:00 1014 + 0,8
Sa, 19.06. 4:50 1014 keine Meldung
Sa, 19.06. 4:40 1014 keine Meldung
Sa, 19.06. 4:30 1014 + 0,8
Sa, 19.06. 4:00 1014 + 0,6
Sa, 19.06. 3:30 1014 + 0,8
Sa, 19.06. 3:00 1014 + 0,6
Sa, 19.06. 2:30 1013 + 0,7
Ortszeit Schneehöhe (cm)
Sa, 19.06. 2:00 -
Fr, 18.06. 20:00 -
Fr, 18.06. 14:00 -
Fr, 18.06. 8:00 -
Fr, 18.06. 2:00 -
Do, 17.06. 20:00 -
Do, 17.06. 14:00 -
Do, 17.06. 8:00 -
Ortszeit Schneehöhe (cm)
Sa, 19.06. 5:30 -
Sa, 19.06. 5:20 -
Sa, 19.06. 5:10 -
Sa, 19.06. 5:00 -
Sa, 19.06. 4:50 -
Sa, 19.06. 4:40 -
Sa, 19.06. 4:30 -
Sa, 19.06. 4:00 -
Sa, 19.06. 3:30 -
Sa, 19.06. 3:00 -
Sa, 19.06. 2:30 -
Link zu dieser Seite / Seite empfehlen

Das Wetter in ...